| time (UTC) | temp F | wind direction | speed MPH | gust MPH | rain 1hr in | rain 24hr in | rain mn in | humidity % | barometer mb |
| 20260906222020 | 91 | 139 | 3.0 | 7.0 | 0.00 | 0.00 | 0.00 | 31 | 1016.4 |
| 20260906221543 | 92 | 54 | 3.0 | 10.0 | 0.00 | 0.00 | 0.00 | 31 | 1016.4 |
| 20260906221018 | 91 | 63 | 3.0 | 10.0 | 0.00 | 0.00 | 0.00 | 31 | 1016.4 |
| 20260906220520 | 91 | 63 | 2.0 | 10.0 | 0.00 | 0.00 | 0.00 | 31 | 1016.5 |
| 20260906220046 | 91 | 336 | 2.0 | 7.0 | 0.00 | 0.00 | 0.00 | 31 | 1016.6 |
| 20260906215524 | 91 | 55 | 3.0 | 6.0 | 0.00 | 0.00 | 0.00 | 31 | 1016.7 |
| 20260906215019 | 92 | 282 | 1.0 | 7.0 | 0.00 | 0.00 | 0.00 | 31 | 1016.7 |
| 20260906214600 | 91 | 235 | 2.0 | 7.0 | 0.00 | 0.00 | 0.00 | 31 | 1016.7 |
| 20260906214026 | 91 | 348 | 2.0 | 8.0 | 0.00 | 0.00 | 0.00 | 32 | 1017.0 |
| 20260906213526 | 91 | 323 | 3.0 | 8.0 | 0.00 | 0.00 | 0.00 | 33 | 1017.0 |
| 20260906213043 | 91 | 30 | 2.0 | 5.0 | 0.00 | 0.00 | 0.00 | 31 | 1017.0 |
| 20260906212518 | 90 | 68 | 1.0 | 5.0 | 0.00 | 0.00 | 0.00 | 32 | 1017.2 |
| 20260906212021 | 90 | 287 | 2.0 | 6.0 | 0.00 | 0.00 | 0.00 | 32 | 1017.4 |
| 20260906211546 | 90 | 91 | 1.0 | 6.0 | 0.00 | 0.00 | 0.00 | 31 | 1017.5 |
| 20260906211018 | 90 | 128 | 1.0 | 5.0 | 0.00 | 0.00 | 0.00 | 32 | 1017.5 |
| 20260906210518 | 89 | 84 | 1.0 | 6.0 | 0.00 | 0.00 | 0.00 | 33 | 1017.8 |
| 20260906210108 | 89 | 84 | 2.0 | 6.0 | 0.00 | 0.00 | 0.00 | 31 | 1017.9 |
| 20260906205520 | 90 | 111 | 0.0 | 6.0 | 0.00 | 0.00 | 0.00 | 33 | 1018.0 |
| 20260906205022 | 90 | 290 | 1.0 | 6.0 | 0.00 | 0.00 | 0.00 | 31 | 1018.0 |
| 20260906204552 | 89 | 155 | 1.0 | 7.0 | 0.00 | 0.00 | 0.00 | 32 | 1018.1 |
| 20260906204026 | 89 | 67 | 3.0 | 7.0 | 0.00 | 0.00 | 0.00 | 32 | 1018.3 |
| 20260906203522 | 89 | 57 | 1.0 | 7.0 | 0.00 | 0.00 | 0.00 | 34 | 1018.3 |
| 20260906203046 | 88 | 140 | 1.0 | 7.0 | 0.00 | 0.00 | 0.00 | 33 | 1018.3 |
| 20260906202522 | 87 | 122 | 2.0 | 9.0 | 0.00 | 0.00 | 0.00 | 35 | 1018.5 |
| 20260906202019 | 87 | 136 | 3.0 | 9.0 | 0.00 | 0.00 | 0.00 | 35 | 1018.5 |
| 20260906201548 | 87 | 288 | 4.0 | 9.0 | 0.00 | 0.00 | 0.00 | 35 | 1018.4 |
| 20260906201019 | 87 | 56 | 1.0 | 6.0 | 0.00 | 0.00 | 0.00 | 34 | 1018.6 |
| 20260906200520 | 87 | 319 | 1.0 | 6.0 | 0.00 | 0.00 | 0.00 | 34 | 1018.7 |
| 20260906200042 | 87 | 54 | 2.0 | 5.0 | 0.00 | 0.00 | 0.00 | 34 | 1018.8 |
| 20260906195520 | 88 | 120 | 1.0 | 7.0 | 0.00 | 0.00 | 0.00 | 33 | 1018.9 |
| 20260906195019 | 87 | 23 | 1.0 | 7.0 | 0.00 | 0.00 | 0.00 | 33 | 1018.9 |
| 20260906194543 | 87 | 148 | 3.0 | 6.0 | 0.00 | 0.00 | 0.00 | 36 | 1018.9 |
| 20260906194023 | 86 | 90 | 2.0 | 8.0 | 0.00 | 0.00 | 0.00 | 35 | 1019.0 |
| 20260906193527 | 86 | 79 | 2.0 | 8.0 | 0.00 | 0.00 | 0.00 | 36 | 1019.2 |
| 20260906193042 | 86 | 60 | 2.0 | 5.0 | 0.00 | 0.00 | 0.00 | 35 | 1019.1 |
| 20260906192521 | 86 | 301 | 1.0 | 8.0 | 0.00 | 0.00 | 0.00 | 35 | 1019.3 |
| 20260906192021 | 85 | 82 | 3.0 | 8.0 | 0.00 | 0.00 | 0.00 | 36 | 1019.4 |
| 20260906191558 | 86 | 59 | 1.0 | 6.0 | 0.00 | 0.00 | 0.00 | 37 | 1019.4 |
| 20260906191020 | 85 | 76 | 2.0 | 5.0 | 0.00 | 0.00 | 0.00 | 37 | 1019.4 |
| 20260906190521 | 85 | 0 | 1.0 | 5.0 | 0.00 | 0.00 | 0.00 | 38 | 1019.5 |
| 20260906190047 | 85 | 131 | 2.0 | 6.0 | 0.00 | 0.00 | 0.00 | 39 | 1019.6 |
| 20260906185519 | 85 | 71 | 1.0 | 6.0 | 0.00 | 0.00 | 0.00 | 39 | 1019.8 |
| 20260906185024 | 84 | 117 | 2.0 | 6.0 | 0.00 | 0.00 | 0.00 | 37 | 1019.9 |
| 20260906184549 | 85 | 141 | 2.0 | 5.0 | 0.00 | 0.00 | 0.00 | 37 | 1019.9 |
| 20260906184028 | 85 | 102 | 0.0 | 6.0 | 0.00 | 0.00 | 0.00 | 38 | 1019.9 |
| 20260906183524 | 84 | 105 | 2.0 | 6.0 | 0.00 | 0.00 | 0.00 | 39 | 1020.1 |
| 20260906183043 | 83 | 45 | 0.0 | 8.0 | 0.00 | 0.00 | 0.00 | 41 | 1020.1 |
| 20260906182525 | 83 | 295 | 2.0 | 8.0 | 0.00 | 0.00 | 0.00 | 40 | 1020.2 |
| 20260906182026 | 82 | 72 | 3.0 | 8.0 | 0.00 | 0.00 | 0.00 | 42 | 1020.4 |
| 20260906181546 | 82 | 70 | 3.0 | 8.0 | 0.00 | 0.00 | 0.00 | 41 | 1020.5 |
| 20260906181024 | 83 | 136 | 2.0 | 4.0 | 0.00 | 0.00 | 0.00 | 42 | 1020.6 |
| 20260906180524 | 83 | 150 | 1.0 | 4.0 | 0.00 | 0.00 | 0.00 | 44 | 1020.7 |
| 20260906180104 | 82 | 223 | 1.0 | 4.0 | 0.00 | 0.00 | 0.00 | 44 | 1020.7 |
| 20260906175525 | 81 | 120 | 1.0 | 4.0 | 0.00 | 0.00 | 0.00 | 44 | 1021.0 |
| 20260906175023 | 81 | 94 | 1.0 | 3.0 | 0.00 | 0.00 | 0.00 | 45 | 1021.1 |
| 20260906174555 | 80 | 68 | 1.0 | 4.0 | 0.00 | 0.00 | 0.00 | 46 | 1021.1 |
| 20260906174019 | 80 | 96 | 1.0 | 6.0 | 0.00 | 0.00 | 0.00 | 47 | 1021.3 |
| 20260906173525 | 79 | 277 | 1.0 | 6.0 | 0.00 | 0.00 | 0.00 | 47 | 1021.3 |
| 20260906173042 | 80 | 63 | 2.0 | 6.0 | 0.00 | 0.00 | 0.00 | 45 | 1021.4 |
| 20260906172524 | 80 | 121 | 1.0 | 4.0 | 0.00 | 0.00 | 0.00 | 47 | 1021.5 |
| 20260906172024 | 80 | 342 | 1.0 | 4.0 | 0.00 | 0.00 | 0.00 | 47 | 1021.6 |
| 20260906171541 | 80 | 143 | 1.0 | 4.0 | 0.00 | 0.00 | 0.00 | 47 | 1021.6 |
| 20260906171024 | 80 | 0 | 1.0 | 4.0 | 0.00 | 0.00 | 0.00 | 47 | 1021.6 |
| 20260906170524 | 79 | 133 | 1.0 | 4.0 | 0.00 | 0.00 | 0.00 | 47 | 1021.7 |
| 20260906170047 | 79 | 151 | 1.0 | 3.0 | 0.00 | 0.00 | 0.00 | 48 | 1021.9 |
| 20260906165523 | 79 | 136 | 1.0 | 4.0 | 0.00 | 0.00 | 0.00 | 47 | 1022.0 |
| 20260906165023 | 78 | 146 | 1.0 | 5.0 | 0.00 | 0.00 | 0.00 | 48 | 1022.0 |
| 20260906164544 | 78 | 124 | 0.0 | 5.0 | 0.00 | 0.00 | 0.00 | 50 | 1022.0 |
| 20260906164020 | 77 | 154 | 2.0 | 5.0 | 0.00 | 0.00 | 0.00 | 53 | 1022.0 |
| 20260906163523 | 77 | 36 | 1.0 | 5.0 | 0.00 | 0.00 | 0.00 | 52 | 1021.9 |
| 20260906163042 | 78 | 82 | 0.0 | 2.0 | 0.00 | 0.00 | 0.00 | 52 | 1022.0 |
| 20260906162520 | 77 | 181 | 1.0 | 2.0 | 0.00 | 0.00 | 0.00 | 53 | 1022.0 |
| 20260906162023 | 77 | 150 | 0.0 | 3.0 | 0.00 | 0.00 | 0.00 | 55 | 1021.9 |
| 20260906161540 | 76 | 81 | 0.0 | 3.0 | 0.00 | 0.00 | 0.00 | 57 | 1021.9 |
| 20260906161027 | 75 | 158 | 0.0 | 3.0 | 0.00 | 0.00 | 0.00 | 58 | 1022.0 |
| 20260906160524 | 75 | 284 | 2.0 | 3.0 | 0.00 | 0.00 | 0.00 | 57 | 1021.9 |
| 20260906160046 | 75 | 112 | 0.0 | 2.0 | 0.00 | 0.00 | 0.00 | 59 | 1021.9 |
| 20260906155524 | 75 | 0 | 0.0 | 3.0 | 0.00 | 0.00 | 0.00 | 59 | 1022.0 |
| 20260906155023 | 74 | 0 | 1.0 | 7.0 | 0.00 | 0.00 | 0.00 | 58 | 1022.0 |
| 20260906154546 | 74 | 0 | 1.0 | 7.0 | 0.00 | 0.00 | 0.00 | 60 | 1021.8 |
| 20260906154023 | 74 | 63 | 1.0 | 3.0 | 0.00 | 0.00 | 0.00 | 59 | 1021.9 |
| 20260906153524 | 74 | 0 | 0.0 | 3.0 | 0.00 | 0.00 | 0.00 | 62 | 1021.9 |
| 20260906153109 | 73 | 0 | 0.0 | 5.0 | 0.00 | 0.00 | 0.00 | 61 | 1021.9 |
| 20260906152524 | 73 | 0 | 1.0 | 5.0 | 0.00 | 0.00 | 0.00 | 62 | 1022.0 |
| 20260906152018 | 74 | 0 | 0.0 | 1.0 | 0.00 | 0.00 | 0.00 | 62 | 1022.0 |
| 20260906151552 | 73 | 0 | 0.0 | 3.0 | 0.00 | 0.00 | 0.00 | 64 | 1022.0 |
| 20260906151019 | 72 | 0 | 1.0 | 4.0 | 0.00 | 0.00 | 0.00 | 65 | 1022.0 |
| 20260906150520 | 71 | 0 | 1.0 | 4.0 | 0.00 | 0.00 | 0.00 | 67 | 1022.1 |
| 20260906150046 | 71 | 331 | 0.0 | 3.0 | 0.00 | 0.00 | 0.00 | 66 | 1022.1 |
| 20260906145519 | 71 | 321 | 1.0 | 2.0 | 0.00 | 0.00 | 0.00 | 66 | 1022.0 |
| 20260906145018 | 71 | 0 | 0.0 | 3.0 | 0.00 | 0.00 | 0.00 | 67 | 1021.9 |
| 20260906144545 | 70 | 0 | 0.0 | 3.0 | 0.00 | 0.00 | 0.00 | 69 | 1022.0 |
| 20260906144021 | 69 | 304 | 1.0 | 3.0 | 0.00 | 0.00 | 0.00 | 69 | 1022.3 |
| 20260906143521 | 69 | 352 | 1.0 | 3.0 | 0.00 | 0.00 | 0.00 | 69 | 1022.2 |
| 20260906143047 | 70 | 322 | 1.0 | 2.0 | 0.00 | 0.00 | 0.00 | 68 | 1022.1 |
| 20260906142518 | 70 | 0 | 0.0 | 2.0 | 0.00 | 0.00 | 0.00 | 69 | 1022.1 |
| 20260906142021 | 69 | 0 | 0.0 | 3.0 | 0.00 | 0.00 | 0.00 | 69 | 1022.0 |
| 20260906141545 | 68 | 354 | 1.0 | 3.0 | 0.00 | 0.00 | 0.00 | 70 | 1022.0 |
| 20260906141018 | 68 | 340 | 1.0 | 3.0 | 0.00 | 0.00 | 0.00 | 69 | 1022.0 |
| 20260906140519 | 68 | 288 | 1.0 | 3.0 | 0.00 | 0.00 | 0.00 | 68 | 1022.1 |
| 20260906140041 | 68 | 332 | 0.0 | 3.0 | 0.00 | 0.00 | 0.00 | 67 | 1022.2 |
| 20260906135525 | 69 | 0 | 0.0 | 2.0 | 0.00 | 0.00 | 0.00 | 66 | 1022.2 |
| 20260906135019 | 68 | 0 | 0.0 | 0.0 | 0.00 | 0.00 | 0.00 | 68 | 1022.1 |
| 20260906134603 | 66 | 0 | 0.0 | 0.0 | 0.00 | 0.00 | 0.00 | 72 | 1022.1 |
| 20260906134018 | 64 | 0 | 0.0 | 1.0 | 0.00 | 0.00 | 0.00 | 73 | 1022.0 |
| 20260906133521 | 64 | 0 | 0.0 | 1.0 | 0.00 | 0.00 | 0.00 | 74 | 1022.0 |
| 20260906133051 | 63 | 0 | 0.0 | 1.0 | 0.00 | 0.00 | 0.00 | 76 | 1022.0 |
| 20260906132520 | 62 | 0 | 0.0 | 0.0 | 0.00 | 0.00 | 0.00 | 78 | 1021.8 |
| 20260906132019 | 61 | 0 | 0.0 | 0.0 | 0.00 | 0.00 | 0.00 | 79 | 1021.9 |
| 20260906131541 | 61 | 0 | 0.0 | 0.0 | 0.00 | 0.00 | 0.00 | 81 | 1021.8 |
| 20260906131019 | 61 | 0 | 0.0 | 0.0 | 0.00 | 0.00 | 0.00 | 82 | 1021.9 |
| 20260906130520 | 60 | 0 | 0.0 | 0.0 | 0.00 | 0.00 | 0.00 | 82 | 1021.8 |
| 20260906130041 | 60 | 0 | 0.0 | 0.0 | 0.00 | 0.00 | 0.00 | 82 | 1021.8 |
| 20260906125523 | 60 | 0 | 0.0 | 0.0 | 0.00 | 0.00 | 0.00 | 82 | 1021.7 |
| 20260906125025 | 60 | 0 | 0.0 | 0.0 | 0.00 | 0.00 | 0.00 | 82 | 1021.6 |
| 20260906124544 | 60 | 0 | 0.0 | 0.0 | 0.00 | 0.00 | 0.00 | 82 | 1021.5 |
| 20260906124022 | 60 | 0 | 0.0 | 0.0 | 0.00 | 0.00 | 0.00 | 81 | 1021.6 |
| 20260906123518 | 60 | 0 | 0.0 | 0.0 | 0.00 | 0.00 | 0.00 | 81 | 1021.6 |
| 20260906123053 | 61 | 0 | 0.0 | 0.0 | 0.00 | 0.00 | 0.00 | 81 | 1021.6 |
| 20260906122520 | 61 | 0 | 0.0 | 0.0 | 0.00 | 0.00 | 0.00 | 80 | 1021.7 |
| 20260906122032 | 61 | 0 | 0.0 | 0.0 | 0.00 | 0.00 | 0.00 | 79 | 1021.7 |
| 20260906121544 | 61 | 0 | 0.0 | 0.0 | 0.00 | 0.00 | 0.00 | 80 | 1021.6 |
| 20260906121018 | 61 | 0 | 0.0 | 0.0 | 0.00 | 0.00 | 0.00 | 79 | 1021.7 |
| 20260906120520 | 61 | 0 | 0.0 | 0.0 | 0.00 | 0.00 | 0.00 | 79 | 1021.7 |
| 20260906120050 | 62 | 0 | 0.0 | 0.0 | 0.00 | 0.00 | 0.00 | 78 | 1021.7 |
| 20260906115523 | 62 | 0 | 0.0 | 0.0 | 0.00 | 0.00 | 0.00 | 77 | 1021.7 |
| 20260906115022 | 62 | 0 | 0.0 | 0.0 | 0.00 | 0.00 | 0.00 | 76 | 1021.6 |
| 20260906114543 | 63 | 0 | 0.0 | 0.0 | 0.00 | 0.00 | 0.00 | 75 | 1021.5 |
| 20260906114021 | 63 | 0 | 0.0 | 0.0 | 0.00 | 0.00 | 0.00 | 75 | 1021.6 |
| 20260906113523 | 63 | 0 | 0.0 | 0.0 | 0.00 | 0.00 | 0.00 | 73 | 1021.6 |
| 20260906113043 | 64 | 0 | 0.0 | 1.0 | 0.00 | 0.00 | 0.00 | 73 | 1021.6 |
| 20260906112521 | 64 | 0 | 0.0 | 1.0 | 0.00 | 0.00 | 0.00 | 72 | 1021.6 |
| 20260906112019 | 64 | 0 | 0.0 | 3.0 | 0.00 | 0.00 | 0.00 | 71 | 1021.4 |
| 20260906111538 | 64 | 0 | 1.0 | 4.0 | 0.00 | 0.00 | 0.00 | 70 | 1021.4 |
| 20260906111018 | 64 | 3 | 2.0 | 5.0 | 0.00 | 0.00 | 0.00 | 69 | 1021.4 |
| 20260906110520 | 65 | 349 | 3.0 | 5.0 | 0.00 | 0.00 | 0.00 | 69 | 1021.4 |
| 20260906110043 | 65 | 338 | 1.0 | 3.0 | 0.00 | 0.00 | 0.00 | 68 | 1021.3 |
| 20260906105519 | 65 | 0 | 1.0 | 4.0 | 0.00 | 0.00 | 0.00 | 68 | 1021.3 |
| 20260906105024 | 65 | 250 | 1.0 | 4.0 | 0.00 | 0.00 | 0.00 | 68 | 1021.2 |
| 20260906104541 | 65 | 353 | 1.0 | 3.0 | 0.00 | 0.00 | 0.00 | 69 | 1021.2 |
| 20260906104024 | 65 | 294 | 1.0 | 6.0 | 0.00 | 0.00 | 0.00 | 69 | 1021.3 |
| 20260906103521 | 66 | 0 | 1.0 | 6.0 | 0.00 | 0.00 | 0.00 | 68 | 1021.2 |
| 20260906103058 | 66 | 351 | 2.0 | 6.0 | 0.00 | 0.00 | 0.00 | 68 | 1021.1 |
| 20260906102520 | 66 | 340 | 2.0 | 4.0 | 0.00 | 0.00 | 0.00 | 67 | 1021.2 |
| 20260906102017 | 66 | 335 | 0.0 | 3.0 | 0.00 | 0.00 | 0.00 | 66 | 1021.0 |
| 20260906101540 | 66 | 331 | 1.0 | 3.0 | 0.00 | 0.00 | 0.00 | 65 | 1020.9 |
| 20260906101020 | 66 | 333 | 0.0 | 3.0 | 0.00 | 0.00 | 0.00 | 64 | 1021.0 |
| 20260906100523 | 66 | 340 | 1.0 | 2.0 | 0.00 | 0.00 | 0.00 | 63 | 1021.0 |
| 20260906100043 | 66 | 326 | 0.0 | 3.0 | 0.00 | 0.00 | 0.00 | 63 | 1021.0 |
| 20260906095521 | 65 | 323 | 2.0 | 3.0 | 0.00 | 0.00 | 0.00 | 64 | 1021.0 |
| 20260906095021 | 64 | 0 | 0.0 | 1.0 | 0.00 | 0.00 | 0.00 | 64 | 1021.1 |
| 20260906094540 | 64 | 0 | 0.0 | 0.0 | 0.00 | 0.00 | 0.00 | 63 | 1021.2 |
| 20260906094021 | 64 | 0 | 0.0 | 0.0 | 0.00 | 0.00 | 0.00 | 63 | 1021.0 |
| 20260906093522 | 65 | 0 | 0.0 | 0.0 | 0.00 | 0.00 | 0.00 | 62 | 1021.0 |
| 20260906093040 | 65 | 0 | 0.0 | 0.0 | 0.00 | 0.00 | 0.00 | 62 | 1020.9 |
| 20260906092517 | 65 | 0 | 0.0 | 0.0 | 0.00 | 0.00 | 0.00 | 62 | 1021.0 |
| 20260906092024 | 65 | 0 | 0.0 | 0.0 | 0.00 | 0.00 | 0.00 | 61 | 1021.0 |
| 20260906091539 | 65 | 0 | 0.0 | 1.0 | 0.00 | 0.00 | 0.00 | 61 | 1020.8 |
| 20260906091020 | 66 | 0 | 0.0 | 1.0 | 0.00 | 0.00 | 0.00 | 61 | 1020.8 |
| 20260906090519 | 66 | 0 | 0.0 | 0.0 | 0.00 | 0.00 | 0.00 | 60 | 1020.8 |
| 20260906090059 | 66 | 0 | 0.0 | 0.0 | 0.00 | 0.00 | 0.00 | 60 | 1020.7 |
| 20260906085523 | 67 | 0 | 0.0 | 1.0 | 0.00 | 0.00 | 0.00 | 58 | 1020.6 |
| 20260906085023 | 67 | 0 | 0.0 | 1.0 | 0.00 | 0.00 | 0.00 | 58 | 1020.6 |
| 20260906084542 | 67 | 0 | 0.0 | 1.0 | 0.00 | 0.00 | 0.00 | 57 | 1020.6 |
| 20260906084019 | 68 | 0 | 0.0 | 1.0 | 0.00 | 0.00 | 0.00 | 56 | 1020.5 |
| 20260906083521 | 68 | 0 | 0.0 | 1.0 | 0.00 | 0.00 | 0.00 | 56 | 1020.5 |
| 20260906083040 | 69 | 0 | 0.0 | 1.0 | 0.00 | 0.00 | 0.00 | 55 | 1020.6 |
| 20260906082517 | 69 | 352 | 0.0 | 1.0 | 0.00 | 0.00 | 0.00 | 55 | 1020.7 |
| 20260906082021 | 69 | 0 | 0.0 | 0.0 | 0.00 | 0.00 | 0.00 | 55 | 1020.8 |
| 20260906081542 | 69 | 0 | 0.0 | 0.0 | 0.00 | 0.00 | 0.00 | 54 | 1020.7 |
| 20260906081018 | 69 | 0 | 0.0 | 1.0 | 0.00 | 0.00 | 0.00 | 53 | 1020.7 |
| 20260906080521 | 70 | 0 | 0.0 | 1.0 | 0.00 | 0.00 | 0.00 | 53 | 1020.7 |
| 20260906080041 | 70 | 0 | 0.0 | 0.0 | 0.00 | 0.00 | 0.00 | 52 | 1020.8 |
| 20260906075524 | 70 | 0 | 0.0 | 1.0 | 0.00 | 0.00 | 0.00 | 51 | 1020.7 |
| 20260906075019 | 71 | 0 | 0.0 | 1.0 | 0.00 | 0.00 | 0.00 | 50 | 1020.5 |
| 20260906074542 | 71 | 0 | 0.0 | 1.0 | 0.00 | 0.00 | 0.00 | 49 | 1020.4 |
| 20260906074021 | 72 | 283 | 0.0 | 1.0 | 0.00 | 0.00 | 0.00 | 48 | 1020.3 |
| 20260906073521 | 72 | 26 | 0.0 | 3.0 | 0.00 | 0.00 | 0.00 | 48 | 1020.2 |
| 20260906073056 | 72 | 0 | 0.0 | 4.0 | 0.00 | 0.00 | 0.00 | 48 | 1020.2 |
| 20260906072520 | 72 | 318 | 2.0 | 6.0 | 0.00 | 0.00 | 0.00 | 48 | 1020.2 |
| 20260906072022 | 72 | 301 | 2.0 | 6.0 | 0.00 | 0.00 | 0.00 | 48 | 1020.2 |
| 20260906071540 | 72 | 262 | 1.0 | 5.0 | 0.00 | 0.00 | 0.00 | 48 | 1020.1 |
| 20260906071020 | 72 | 317 | 2.0 | 5.0 | 0.00 | 0.00 | 0.00 | 49 | 1020.1 |
| 20260906070521 | 71 | 297 | 1.0 | 5.0 | 0.00 | 0.00 | 0.00 | 50 | 1020.0 |
| 20260906070044 | 71 | 326 | 1.0 | 5.0 | 0.00 | 0.00 | 0.00 | 51 | 1020.1 |
| 20260906065523 | 70 | 294 | 2.0 | 5.0 | 0.00 | 0.00 | 0.00 | 52 | 1020.2 |
| 20260906065025 | 70 | 0 | 0.0 | 1.0 | 0.00 | 0.00 | 0.00 | 53 | 1020.3 |
| 20260906064543 | 70 | 0 | 0.0 | 0.0 | 0.00 | 0.00 | 0.00 | 53 | 1020.5 |
| 20260906064022 | 70 | 0 | 0.0 | 1.0 | 0.00 | 0.00 | 0.00 | 53 | 1020.6 |
| 20260906063521 | 71 | 0 | 0.0 | 1.0 | 0.00 | 0.00 | 0.00 | 52 | 1020.6 |
| 20260906063048 | 71 | 337 | 0.0 | 1.0 | 0.00 | 0.00 | 0.00 | 52 | 1020.7 |
| 20260906062520 | 71 | 0 | 0.0 | 0.0 | 0.00 | 0.00 | 0.00 | 51 | 1020.7 |
| 20260906062018 | 72 | 0 | 0.0 | 0.0 | 0.00 | 0.00 | 0.00 | 50 | 1020.8 |
| 20260906061542 | 72 | 0 | 0.0 | 0.0 | 0.00 | 0.00 | 0.00 | 49 | 1020.8 |
| 20260906061024 | 73 | 0 | 0.0 | 1.0 | 0.00 | 0.00 | 0.00 | 48 | 1020.8 |
| 20260906060523 | 73 | 0 | 0.0 | 2.0 | 0.00 | 0.00 | 0.00 | 48 | 1020.7 |
| 20260906060046 | 74 | 0 | 0.0 | 2.0 | 0.00 | 0.00 | 0.00 | 47 | 1020.8 |
| 20260906055524 | 74 | 0 | 0.0 | 3.0 | 0.00 | 0.00 | 0.00 | 46 | 1020.9 |
| 20260906055019 | 74 | 291 | 1.0 | 4.0 | 0.00 | 0.00 | 0.00 | 46 | 1021.0 |
| 20260906054544 | 75 | 265 | 0.0 | 4.0 | 0.00 | 0.00 | 0.00 | 45 | 1021.0 |
| 20260906054021 | 74 | 292 | 1.0 | 4.0 | 0.00 | 0.00 | 0.00 | 45 | 1021.0 |
| 20260906053523 | 74 | 187 | 0.0 | 2.0 | 0.00 | 0.00 | 0.00 | 46 | 1021.1 |
| 20260906053041 | 75 | 0 | 0.0 | 0.0 | 0.00 | 0.00 | 0.00 | 47 | 1021.0 |
| 20260906052528 | 75 | 0 | 0.0 | 0.0 | 0.00 | 0.00 | 0.00 | 43 | 1020.9 |
| 20260906052024 | 75 | 0 | 0.0 | 0.0 | 0.00 | 0.00 | 0.00 | 40 | 1020.9 |
| 20260906051558 | 76 | 0 | 0.0 | 0.0 | 0.00 | 0.00 | 0.00 | 40 | 1021.2 |
| 20260906051024 | 76 | 0 | 0.0 | 1.0 | 0.00 | 0.00 | 0.00 | 39 | 1021.3 |
| 20260906050523 | 76 | 0 | 0.0 | 3.0 | 0.00 | 0.00 | 0.00 | 39 | 1021.4 |
| 20260906050058 | 76 | 335 | 0.0 | 3.0 | 0.00 | 0.00 | 0.00 | 38 | 1021.4 |
| 20260906045524 | 76 | 310 | 0.0 | 4.0 | 0.00 | 0.00 | 0.00 | 38 | 1021.3 |
| 20260906045021 | 76 | 0 | 0.0 | 5.0 | 0.00 | 0.00 | 0.00 | 38 | 1021.4 |
| 20260906044549 | 75 | 168 | 3.0 | 5.0 | 0.00 | 0.00 | 0.00 | 39 | 1021.5 |
| 20260906044025 | 75 | 212 | 1.0 | 3.0 | 0.00 | 0.00 | 0.00 | 40 | 1021.5 |
| 20260906043527 | 74 | 295 | 0.0 | 4.0 | 0.00 | 0.00 | 0.00 | 42 | 1021.3 |
| 20260906043053 | 73 | 0 | 0.0 | 4.0 | 0.00 | 0.00 | 0.00 | 43 | 1021.3 |
| 20260906042523 | 72 | 0 | 0.0 | 1.0 | 0.00 | 0.00 | 0.00 | 47 | 1021.3 |
| 20260906042021 | 71 | 0 | 0.0 | 1.0 | 0.00 | 0.00 | 0.00 | 48 | 1021.0 |
| 20260906041546 | 71 | 0 | 0.0 | 0.0 | 0.00 | 0.00 | 0.00 | 49 | 1020.7 |
| 20260906041025 | 71 | 0 | 0.0 | 0.0 | 0.00 | 0.00 | 0.00 | 49 | 1020.5 |
| 20260906040524 | 71 | 0 | 0.0 | 0.0 | 0.00 | 0.00 | 0.00 | 49 | 1020.3 |
| 20260906040045 | 71 | 0 | 0.0 | 0.0 | 0.00 | 0.00 | 0.00 | 49 | 1020.3 |
| 20260906035518 | 71 | 0 | 0.0 | 0.0 | 0.00 | 0.00 | 0.00 | 48 | 1020.3 |
| 20260906035018 | 71 | 0 | 0.0 | 0.0 | 0.00 | 0.00 | 0.00 | 47 | 1020.1 |
| 20260906034604 | 71 | 0 | 0.0 | 0.0 | 0.00 | 0.00 | 0.00 | 47 | 1020.1 |
| 20260906034028 | 72 | 0 | 0.0 | 0.0 | 0.00 | 0.00 | 0.00 | 47 | 1020.1 |
| 20260906033524 | 72 | 0 | 0.0 | 0.0 | 0.00 | 0.00 | 0.00 | 46 | 1019.9 |
| 20260906033046 | 72 | 0 | 0.0 | 0.0 | 0.00 | 0.00 | 0.00 | 45 | 1019.9 |
| 20260906032523 | 73 | 0 | 0.0 | 1.0 | 0.00 | 0.00 | 0.00 | 45 | 1019.9 |
| 20260906032025 | 73 | 0 | 0.0 | 1.0 | 0.00 | 0.00 | 0.00 | 45 | 1020.0 |
| 20260906031549 | 73 | 15 | 0.0 | 1.0 | 0.00 | 0.00 | 0.00 | 45 | 1019.9 |
| 20260906031024 | 73 | 19 | 0.0 | 1.0 | 0.00 | 0.00 | 0.00 | 44 | 1019.8 |
| 20260906030522 | 73 | 0 | 0.0 | 1.0 | 0.00 | 0.00 | 0.00 | 43 | 1019.7 |
| 20260906030044 | 74 | 0 | 0.0 | 0.0 | 0.00 | 0.00 | 0.00 | 43 | 1019.6 |
| 20260906025525 | 74 | 0 | 0.0 | 0.0 | 0.00 | 0.00 | 0.00 | 42 | 1019.4 |
| 20260906025025 | 74 | 0 | 0.0 | 0.0 | 0.00 | 0.00 | 0.00 | 41 | 1019.2 |
| 20260906024547 | 75 | 0 | 0.0 | 0.0 | 0.00 | 0.00 | 0.00 | 40 | 1019.0 |
| 20260906024024 | 76 | 0 | 0.0 | 0.0 | 0.00 | 0.00 | 0.00 | 39 | 1018.9 |
| 20260906023525 | 76 | 0 | 0.0 | 0.0 | 0.00 | 0.00 | 0.00 | 38 | 1018.8 |
| 20260906023044 | 77 | 0 | 0.0 | 0.0 | 0.00 | 0.00 | 0.00 | 38 | 1018.8 |
| 20260906022528 | 77 | 0 | 0.0 | 0.0 | 0.00 | 0.00 | 0.00 | 37 | 1018.8 |
| 20260906022024 | 78 | 0 | 0.0 | 0.0 | 0.00 | 0.00 | 0.00 | 36 | 1018.8 |
| 20260906021546 | 78 | 0 | 0.0 | 0.0 | 0.00 | 0.00 | 0.00 | 35 | 1018.8 |
| 20260906021024 | 79 | 0 | 0.0 | 1.0 | 0.00 | 0.00 | 0.00 | 34 | 1018.7 |
| 20260906020522 | 80 | 0 | 0.0 | 1.0 | 0.00 | 0.00 | 0.00 | 33 | 1018.8 |
| 20260906020055 | 80 | 0 | 0.0 | 1.0 | 0.00 | 0.00 | 0.00 | 33 | 1018.7 |
| 20260906015527 | 81 | 349 | 1.0 | 1.0 | 0.00 | 0.00 | 0.00 | 32 | 1018.7 |
| 20260906015025 | 81 | 345 | 0.0 | 3.0 | 0.00 | 0.00 | 0.00 | 31 | 1018.7 |
| 20260906014544 | 82 | 0 | 0.0 | 3.0 | 0.00 | 0.00 | 0.00 | 31 | 1018.6 |
| 20260906014025 | 82 | 347 | 1.0 | 3.0 | 0.00 | 0.00 | 0.00 | 30 | 1018.6 |
| 20260906013521 | 82 | 338 | 1.0 | 5.0 | 0.00 | 0.00 | 0.00 | 30 | 1018.5 |
| 20260906013100 | 83 | 347 | 1.0 | 5.0 | 0.00 | 0.00 | 0.00 | 29 | 1018.4 |
| 20260906012519 | 83 | 39 | 1.0 | 5.0 | 0.00 | 0.00 | 0.00 | 29 | 1018.4 |
| 20260906012020 | 84 | 345 | 1.0 | 7.0 | 0.00 | 0.00 | 0.00 | 28 | 1018.4 |
| 20260906011547 | 84 | 309 | 3.0 | 8.0 | 0.00 | 0.00 | 0.00 | 28 | 1018.5 |
| 20260906011027 | 84 | 336 | 1.0 | 8.0 | 0.00 | 0.00 | 0.00 | 28 | 1018.5 |
| 20260906010527 | 84 | 323 | 2.0 | 8.0 | 0.00 | 0.00 | 0.00 | 29 | 1018.4 |
| 20260906010043 | 85 | 339 | 0.0 | 3.0 | 0.00 | 0.00 | 0.00 | 30 | 1018.3 |
| 20260906005523 | 85 | 0 | 0.0 | 2.0 | 0.00 | 0.00 | 0.00 | 30 | 1018.3 |
| 20260906005025 | 85 | 298 | 0.0 | 3.0 | 0.00 | 0.00 | 0.00 | 29 | 1018.4 |
| 20260906004544 | 85 | 311 | 1.0 | 3.0 | 0.00 | 0.00 | 0.00 | 30 | 1018.4 |
| 20260906004027 | 86 | 320 | 0.0 | 1.0 | 0.00 | 0.00 | 0.00 | 33 | 1018.4 |
| 20260906003524 | 87 | 0 | 0.0 | 0.0 | 0.00 | 0.00 | 0.00 | 31 | 1018.3 |
| 20260906003043 | 87 | 0 | 0.0 | 0.0 | 0.00 | 0.00 | 0.00 | 30 | 1018.4 |
| 20260906002518 | 88 | 0 | 0.0 | 0.0 | 0.00 | 0.00 | 0.00 | 27 | 1018.4 |
| 20260906002024 | 89 | 305 | 0.0 | 0.0 | 0.00 | 0.00 | 0.00 | 26 | 1018.3 |
| 20260906001541 | 91 | 0 | 0.0 | 0.0 | 0.00 | 0.00 | 0.00 | 25 | 1018.3 |
| 20260906001024 | 91 | 0 | 0.0 | 1.0 | 0.00 | 0.00 | 0.00 | 25 | 1018.4 |
| 20260906000525 | 90 | 0 | 0.0 | 1.0 | 0.00 | 0.00 | 0.00 | 25 | 1018.3 |
| 20260906000052 | 90 | 0 | 0.0 | 2.0 | 0.00 | 0.00 | 0.00 | 24 | 1018.3 |
| 20260905235525 | 90 | 0 | 0.0 | 4.0 | 0.00 | 0.00 | 0.00 | 25 | 1018.2 |
| 20260905235024 | 91 | 289 | 0.0 | 4.0 | 0.00 | 0.00 | 0.00 | 22 | 1018.2 |
| 20260905234545 | 91 | 307 | 1.0 | 4.0 | 0.00 | 0.00 | 0.00 | 23 | 1018.2 |
| 20260905234021 | 91 | 333 | 1.0 | 2.0 | 0.00 | 0.00 | 0.00 | 23 | 1018.2 |
| 20260905233524 | 91 | 341 | 1.0 | 2.0 | 0.00 | 0.00 | 0.00 | 22 | 1018.2 |
| 20260905233045 | 92 | 337 | 1.0 | 2.0 | 0.00 | 0.00 | 0.00 | 22 | 1018.2 |
| 20260905232524 | 92 | 20 | 0.0 | 4.0 | 0.00 | 0.00 | 0.00 | 22 | 1018.2 |
| 20260905232024 | 91 | 67 | 0.0 | 4.0 | 0.00 | 0.00 | 0.00 | 22 | 1018.2 |
| 20260905231546 | 92 | 84 | 0.0 | 2.0 | 0.00 | 0.00 | 0.00 | 22 | 1018.3 |
| 20260905231025 | 90 | 70 | 0.0 | 1.0 | 0.00 | 0.00 | 0.00 | 25 | 1018.1 |
| 20260905230525 | 89 | 70 | 0.0 | 1.0 | 0.00 | 0.00 | 0.00 | 24 | 1018.2 |
| 20260905230049 | 89 | 0 | 0.0 | 1.0 | 0.00 | 0.00 | 0.00 | 24 | 1018.3 |
| 20260905225526 | 90 | 0 | 0.0 | 1.0 | 0.00 | 0.00 | 0.00 | 23 | 1018.1 |
| 20260905225020 | 90 | 0 | 0.0 | 3.0 | 0.00 | 0.00 | 0.00 | 24 | 1018.0 |
| 20260905224542 | 90 | 0 | 1.0 | 6.0 | 0.00 | 0.00 | 0.00 | 22 | 1018.1 |
| 20260905224021 | 91 | 134 | 3.0 | 6.0 | 0.00 | 0.00 | 0.00 | 22 | 1018.0 |
| 20260905223523 | 92 | 0 | 0.0 | 4.0 | 0.00 | 0.00 | 0.00 | 21 | 1018.1 |
| 20260905223047 | 92 | 0 | 0.0 | 4.0 | 0.00 | 0.00 | 0.00 | 21 | 1018.2 |
| 20260905222530 | 93 | 77 | 2.0 | 4.0 | 0.00 | 0.00 | 0.00 | 20 | 1018.2 |